Regional Weather Roundup
Issued by NWS

Home | Current Version | Previous Version | Graphics & Text | Print | Product List | Glossary Off
Versions: 1 2 3 4 5 6 7 8 9 10 11 12 13 14 15 16 17 18 19 20 21 22 23 24 25 26 27 28 29 30 31 32 33 34 35 36 37 38 39 40 41 42 43 44 45 46 47 48 49 50

000
ASUS43 KTOP 220708
RWRKS

WEATHER ROUNDUP FOR KANSAS
NATIONAL WEATHER SERVICE GOODLAND KS
200 AM CDT TUE MAY 22 2018

NOTE:  "FAIR" INDICATES FEW OR NO CLOUDS BELOW 12,000 FEET WITH NO
SIGNIFICANT WEATHER AND/OR OBSTRUCTIONS TO VISIBILITY.

KSZ001>006-013>018-027>032-041>047-220800-
NORTHWEST KANSAS

CITY           SKY/WX    TMP DP  RH WIND       PRES   REMARKS
GOODLAND       PTCLDY    60  46  59 S10       29.94R
HAYS           CLOUDY    66  59  78 S15       29.94S
HILL CITY      CLEAR     66  59  78 S7        29.93S
RUSSELL        CLOUDY    67  61  81 S18       29.93F
$$

KSZ061>065-074>080-084>089-220800-
SOUTHWEST KANSAS

CITY           SKY/WX    TMP DP  RH WIND       PRES   REMARKS
DODGE CITY     PTCLDY    65  57  75 S9        29.97F
ELKHART        MOCLDY    68  58  72 S12       30.00S
GARDEN CITY    PTCLDY    63  58  83 SE8       29.96S
GREAT BEND     CLOUDY    65  60  84 S13       29.96F
LIBERAL        CLOUDY    64  57  78 S10       30.00R
PRATT          PTCLDY    67  58  73 S13G18    29.98F
$$

KSZ066>073-081>083-090>101-220800-
SOUTHEAST KANSAS

CITY           SKY/WX    TMP DP  RH WIND       PRES   REMARKS
CHANUTE        CLEAR     63  61  93 SE6       30.01F
COFFEYVILLE    CLEAR     63  62  97 NE3       29.99F
HUTCHINSON     CLOUDY    66  62  87 SE10      29.98F
MEDICINE LODGE   N/A     66  61  84 SE5       29.98S
NEWTON         CLOUDY    63  59  87 SE9       30.00F
PARSONS        CLEAR     64  63  96 CALM      30.01F
WICHITA INTL   CLOUDY    67  62  84 SE9       29.99S
WICHITA JABRA  CLOUDY    65  61  87 SE9       29.99F
WICHITA MCCONL CLOUDY    66  59  78 S9        30.00R
WINFIELD       CLEAR     65  62  90 E3        30.01S
$$

KSZ007>012-019>026-033>040-048>060-102>105-220800-
NORTHEAST KANSAS

CITY           SKY/WX    TMP DP  RH WIND       PRES   REMARKS
CONCORDIA      CLOUDY    64  59  83 SE8       29.97R
EMPORIA        CLOUDY    62  60  93 S7        30.00F
LAWRENCE       CLOUDY    60  59  96 E3        30.01F
MANHATTAN      CLOUDY    66  61  84 CALM      29.98F
MARYSVILLE     CLOUDY    63  59  88 SE7       29.99S
OLATHE IND     CLOUDY    61  58  90 CALM      30.02F
OLATHE EXE     CLOUDY    61  59  93 CALM      30.02F
SALINA         PTCLDY    66  60  81 SE9       29.96F
TOPEKA BILLARD CLOUDY    64  62  93 E5        30.00F
TOPEKA FORBES  CLOUDY    63  60  90 SE5       30.00F
$$




USA.gov is the U.S. government's official web portal to all federal, state and local government web resources and services.